Regional Weather Roundup
Issued by NWS

Home | Current Version | Previous Version | Graphics & Text | Print | Product List | Glossary On
Versions: 1 2 3 4 5 6 7 8 9 10 11 12 13 14 15 16 17 18 19 20 21 22 23 24 25 26 27 28 29 30 31 32 33 34 35 36 37 38 39 40 41 42 43 44 45 46 47 48 49 50
000
ASUS43 KLSX 192007
RWRMO

WEATHER SUMMARY FOR MISSOURI
NATIONAL WEATHER SERVICE SPRINGFIELD MO
200 PM CST MON FEB 19 2018

NOTE: "FAIR" INDICATES FEW OR NO CLOUDS BELOW 12,000 FEET WITH NO
       SIGNIFICANT WEATHER AND/OR OBSTRUCTIONS TO VISIBILITY.
       CURRENT SKY AND/OR WEATHER CONDITIONS ARE NOT AVAILABLE FOR
       CHILLICOTHE AND FARMINGTON.

MOZ001>031-035>038-043-044-053-054-192100-
...NORTHERN AND WESTERN MISSOURI...

CITY           SKY/WX    TMP DP  RH WIND       PRES   REMARKS
KANSAS CTY INT DRIZZLE   33  31  92 NW10      29.77S FOG     WCI  25
KANSAS C DTWN  CLOUDY    37  32  82 W13       29.77R WCI  29
LEE`S SUMMIT   CLOUDY    43  38  82 NW10      29.75R
ST JOSEPH      CLOUDY    32  32 100 NW15      29.79S WCI  22
CHILLICOTHE      N/A     46  41  82 NW9       29.72S
KIRKSVILLE     LGT RAIN  64  61  90 S17G28    29.69S

$$
MOZ066>068-077>081-088>096-101>105-192100-
...SOUTHWEST MISSOURI...

CITY           SKY/WX    TMP DP  RH WIND       PRES   REMARKS
SPRINGFIELD    CLOUDY    65  60  84 S26G36    29.80S
JOPLIN         LGT RAIN  66  63  90 S24G33    29.74F
BRANSON        CLOUDY    68  57  68 S17G28    29.86F

$$
MOZ032>034-039>042-045>050-055>058-069>072-192100-
...CENTRAL MISSOURI...

CITY           SKY/WX    TMP DP  RH WIND       PRES   REMARKS
COLUMBIA       LGT RAIN  60  59  96 S20       29.77F FOG
JEFFERSON CITY CLOUDY    62  59  90 SE10      29.78F
ROLLA          CLOUDY    61  59  93 S17G24    29.83F
SEDALIA        LGT RAIN  63  62  97 S20       29.73F
WHITEMAN AFB   CLOUDY    62  60  92 S14       29.67S
WARRENSBURG    CLOUDY    63  59  88 S18       29.71R
OSAGE BEACH    CLOUDY    62  59  90 S12G17    29.79F

$$
MOZ051-052-059>065-192100-
...EAST CENTRAL MISSOURI...

CITY           SKY/WX    TMP DP  RH WIND       PRES   REMARKS
ST LOUIS INTL  TSTM      61  59  93 S10       29.87F FOG
SPIRIT OF STL  LGT RAIN  61  60  97 S7        29.85F
ST CHARLES     RAIN      60  59  96 S15       29.85F FOG

$$
MOZ072>076-082>087-097>100-106>115-192100-
...SOUTH CENTRAL AND SOUTHEAST MISSOURI...

CITY           SKY/WX    TMP DP  RH WIND       PRES   REMARKS
CAPE GIRARDEAU PTSUNNY   69  60  73 S25G35    29.96F
FARMINGTON     CLOUDY    68  57  68 S18G24    29.91S
POPLAR BLUFF   PTSUNNY   71  59  65 S22G33    29.94F
WEST PLAINS    CLOUDY    65  57  75 S17G33    29.91F

$$


USA.gov is the U.S. government's official web portal to all federal, state and local government web resources and services.